Location: Владивосток
(43.1151°N, 131.8856°E)
Time: 14:39:40
(UTC+10:00)

AO-73 - Visible Passes

Search period start: 16 April 2024 00:00
Search period end: 26 April 2024 00:00
Orbit: 561 x 629 km, 97.7° (Epoch: 15 April)

Date Brightness Start Highest point End Pass type
(mag) Time Alt. Az. Time Alt. Az. Time Alt. Az.
16 Apr ? 03:10:31 10° ENE 03:12:32 13° E 03:13:40 12° ESE visible
16 Apr ? 04:44:14 10° N 04:48:31 61° WNW 04:50:19 33° SW visible
17 Apr ? 03:19:27 10° NE 03:22:13 16° E 03:23:29 15° ESE visible
17 Apr ? 04:53:54 10° N 04:58:04 47° WNW 05:00:08 26° SW visible
18 Apr ? 03:28:35 10° NE 03:31:52 21° E 03:33:17 18° ESE visible
18 Apr ? 05:03:34 10° N 05:07:36 38° WNW 05:09:56 21° SW visible
19 Apr ? 03:37:50 10° NE 03:41:29 26° E 03:43:03 21° SE visible
19 Apr ? 05:13:15 10° N 05:17:05 30° WNW 05:19:41 17° WSW visible
20 Apr ? 03:47:08 10° NNE 03:51:04 32° E 03:52:47 24° SE visible
20 Apr ? 05:22:59 10° NNW 05:26:32 25° WNW 05:29:26 13° WSW visible
21 Apr ? 03:56:28 10° NNE 04:00:36 40° E 04:02:29 26° SSE visible
21 Apr ? 05:32:45 10° NNW 05:35:56 20° WNW 05:39:08 10° WSW visible
22 Apr ? 04:05:50 10° NNE 04:10:06 51° E 04:12:11 28° SSE visible
22 Apr ? 05:42:33 10° NNW 05:45:18 17° WNW 05:48:04 10° WSW visible
23 Apr ? 04:15:12 10° NNE 04:19:34 66° ESE 04:21:50 27° S visible
24 Apr ? 04:24:35 10° NNE 04:28:59 84° E 04:31:27 26° S visible
25 Apr ? 03:02:08 10° E 03:02:16 10° E 03:02:23 10° E visible
25 Apr ? 04:34:00 10° N 04:38:23 78° WNW 04:41:02 23° SSW visible
